Regional Weather Roundup
Issued by NWS New Orleans/Baton Rouge, LA

Home | Current Version | Previous Version | Text Only | Print | Product List | Glossary On
Versions: 1 2 3 4 5 6 7 8 9 10 11 12 13 14 15 16 17 18 19 20 21 22 23 24 25 26 27 28 29 30 31 32 33 34 35 36 37 38 39 40 41 42 43 44 45 46 47 48 49 50
991
ASUS44 KLIX 301101
RWRLIX
NEW ORLEANS REGIONAL WEATHER ROUNDUP
NATIONAL WEATHER SERVICE NEW ORLEANS LA
600 AM CDT THU OCT 30 2014

NOTE: "FAIR" INDICATES FEW OR NO CLOUDS BELOW 12,000 FEET WITH NO
      SIGNIFICANT WEATHER AND/OR OBSTRUCTIONS TO VISIBILITY.
      SKY/WX - SKY CONDITION AND SIGNIFICANT WEATHER.
      TMP - AIR TEMPERATURE.     DP    - DEWPOINT TEMPERATURE.
      RH  - RELATIVE HUMIDITY.   PRES  - PRESSURE.
      HI  - HEAT INDEX.          WCI   - WIND CHILL INDEX.

*  THESE STATIONS ARE NOT NWS OR FAA STATIONS AND ARE NOT UNDER
   NWS QUALITY CONTROL.

LAZ038-040-048-061>063-065>067-069-301200-
SOUTHEAST LOUISIANA

CITY           SKY/WX    TMP DP  RH WIND       PRES   REMARKS
N.O. AUDUBON   NOT AVBL
N.O. INTL ARPT PTCLDY    65  46  50 NE14      30.08R
N.O. LAKEFRONT PTCLDY    66  48  52 NE17      30.08R
N.O. DOWNTOWN*   N/A     64  45  48 N6        30.08R
SLIDELL        CLEAR     53  47  79 N6        30.08R
BATON ROUGE    CLEAR     51  46  83 NE5       30.10R
BOOTHVILLE     CLOUDY    69  59  70 NE10      30.04S
BELLE CHASSE   MOCLDY    62  48  60 N6        30.07R
BOGALUSA*        N/A     49  45  86 N5        30.11R
NEW ROADS*       N/A     50  45  82 N3        30.11R
GONZALES*        N/A     56  52  86 N3        30.09R
HAMMOND*       NOT AVBL
HOUMA*         PTCLDY    61  54  77 N7        30.07R
PORT FOURCHON* CLOUDY    70  59  68 NE13G21   30.08R

$$

MSZ070-080>082-301200-
SOUTHERN MISSISSIPPI

CITY           SKY/WX    TMP DP  RH WIND       PRES   REMARKS
MCCOMB         CLEAR     52  43  71 N5        30.11R
GULFPORT       CLEAR     57  45  64 N7        30.06R
BILOXI         CLEAR     58  48  69 N9        30.06S
PASCAGOULA     CLEAR     55  51  86 N6        30.06R

$$

COASTAL OBSERVATIONS
LAKE AND NEARSHORE STATIONS

STATION/POSITION TIME  TEMP    WIND        PRES    WAVE
                       AIR SEA DIR/SP/G            HT/PER
                 (UTC) (F)     (DEG/KT/KT) (MB)    (FT/S)
PASCAGOULA       1000   60     360/  8/ 10 1017.1
WAVELAND YACHT   1000   61      30/ 11/ 12 1017.4
GRAND ISLE       1000   69 77   60/ 11/ 16 1017.7
SOUTHWEST PASS   1000   69 79              1017.0
NEW CANAL        1000   66 71   50/ 17/ 19 1018.4
SHELL BEACH      1000   67 70   40/ 17/ 19 1017.7

OFFSHORE STATIONS

STATION/POSITION TIME  TEMP    WIND        PRES    WAVE
                       AIR SEA DIR/SP/G            HT/PER
                 (UTC) (F)     (DEG/KT/KT) (MB)    (FT/S)
64 S DAUPHIN ISL 1005   71 78   20/ 16/ 17 1016.7    4/ 5

$$




USA.gov is the U.S. government's official web portal to all federal, state and local government web resources and services.